Regional Weather Roundup
Issued by NWS

Home | Current Version | Previous Version | Graphics & Text | Print | Product List | Glossary On
Versions: 1 2 3 4 5 6 7 8 9 10 11 12 13 14 15 16 17 18 19 20 21 22 23 24 25 26 27 28 29 30 31 32 33 34 35 36 37 38 39 40 41 42 43 44 45 46 47 48 49 50
000
ASUS43 KOAX 302010
RWRNE

WEATHER ROUNDUP FOR NEBRASKA
NATIONAL WEATHER SERVICE OMAHA NE
300 PM CDT THU MAR 30 2017

NOTES: SATELLITE DATA IS BEING USED TO AUGMENT CLOUD COVER ABOVE
       12000 FEET.
       "FAIR" INDICATES FEW OR NO CLOUDS BELOW 12,000 FEET WITH NO
       SIGNIFICANT WEATHER AND/OR OBSTRUCTIONS TO VISIBILITY.

  * THESE STATIONS DO NOT REPORT WEATHER SUCH AS RAIN...SNOW OR FOG.

NEZ001>004-019>022-054>056-302100-
NEBRASKA PANHANDLE

CITY           SKY/WX    TMP DP  RH WIND       PRES   REMARKS
SCOTTSBLUFF    SUNNY     56  40  55 SE9       29.71F
ALLIANCE       CLOUDY    50  37  61 SE10      29.72F
CHADRON        CLOUDY    56  38  50 SE10      29.71F
KIMBALL        PTSUNNY   59  42  53 E7        29.71F
SIDNEY         SUNNY     57  41  55 E9        29.72F
$$

NEZ057>060-069>072-079>082-302100-
SOUTHWEST NEBRASKA

CITY           SKY/WX    TMP DP  RH WIND       PRES   REMARKS
NORTH PLATTE   MOSUNNY   48  36  63 E7        29.76F
IMPERIAL       SUNNY     54  34  46 CALM      29.74F
LEXINGTON      CLOUDY    42  36  78 N9        29.78F
MCCOOK         PTSUNNY   48  38  68 MISG      29.76F
OGALLALA       MOSUNNY   54  34  46 E5        29.74F
$$

NEZ005>010-023>029-035>040-094-302100-
NORTH CENTRAL NEBRASKA

CITY           SKY/WX    TMP DP  RH WIND       PRES   REMARKS
VALENTINE      CLOUDY    42  33  70 SE5       29.79F
AINSWORTH      CLOUDY    41  35  80 N6        29.80F
BROKEN BOW     CLOUDY    42  34  73 N7        29.77F
O`NEILL        CLOUDY    42  37  82 N9        29.79S
ORD            CLOUDY    44  35  70 N10       29.76F
THEDFORD       CLOUDY    43  35  75 NE8       29.78F
$$

NEZ041-046>049-061>064-073>077-083>087-302100-
SOUTH CENTRAL NEBRASKA

CITY           SKY/WX    TMP DP  RH WIND       PRES   REMARKS
GRAND ISLAND   CLOUDY    44  39  82 N16       29.75F
AURORA         CLOUDY    42  40  91 N15       29.75S
HASTINGS       CLOUDY    44  38  79 N20       29.75F
HEBRON         CLOUDY    44  40  84 N16       29.72F
HOLDREGE       CLOUDY    44  37  76 N8        29.76F
KEARNEY *      CLOUDY    46  36  66 N13       29.77S
YORK           CLOUDY    43  41  93 N12G23    29.74S
$$

NEZ011>018-030>034-042>045-302100-
NORTHEAST NEBRASKA

CITY           SKY/WX    TMP DP  RH WIND       PRES   REMARKS
NORFOLK        CLOUDY    42  36  79 N12       29.76R
ALBION         CLOUDY    44  37  78 N10G17    29.77S
BLAIR          CLOUDY    43  40  88 N14G21    29.70F
FREMONT        CLOUDY    43  40  89 N9        29.73F
TEKAMAH        CLOUDY    44  39  82 N15       29.73F
WAYNE          CLOUDY    42  40  94 N13       29.76S
$$

NEZ050>053-065>068-078-088>093-302100-
SOUTHEAST NEBRASKA

CITY           SKY/WX    TMP DP  RH WIND       PRES   REMARKS
LINCOLN        CLOUDY    45  41  86 N17       29.72S
OMAHA EPPLEY   CLOUDY    44  38  79 N17       29.70F
BEATRICE       CLOUDY    44  42  93 N15       29.70S
FALLS CITY     LGT RAIN  44  42  93 N16G22    29.65R FOG
NEBRASKA CITY  CLOUDY    42  42 100 N18       29.68S
PLATTSMOUTH    CLOUDY    43  38  84 N10G16    29.69S
$$

NEZ044-045-051>053-067-302100-
OMAHA AREA

CITY           SKY/WX    TMP DP  RH WIND       PRES   REMARKS
OMAHA EPPLEY   CLOUDY    44  38  79 N17       29.70F
BLAIR          CLOUDY    43  40  88 N14G21    29.70F
FREMONT        CLOUDY    43  40  89 N9        29.73F
MILLARD        CLOUDY    46  41  83 N10G20    29.71S
OFFUTT AFB     CLOUDY    44  39  85 N13G20    29.69F
PLATTSMOUTH    CLOUDY    43  38  84 N10G16    29.69S
WAHOO          CLOUDY    43  40  90 N18       29.71F
$$




USA.gov is the U.S. government's official web portal to all federal, state and local government web resources and services.